This is the latest recevied weather packets stored in our database for station/object KQ7A. If no packets are shown the sender has not sent any weather packets the latest 10 day(s).
| Time | Temp. | Humidity | Pressure | Rain* | Wind** | Luminosity | Snow |
|---|---|---|---|---|---|---|---|
| 1778195440 | 25.56° C | 21% | 1019 hPa | 0 mm | - | 575 W/m² | - |
| 1778195136 | 25.56° C | 23% | 1019.2 hPa | 0 mm | - | 586 W/m² | - |
| 1778194833 | 26.11° C | 19% | 1019.1 hPa | 0 mm | - | 600 W/m² | - |
| 1778194528 | 26.11° C | 20% | 1018.9 hPa | 0 mm | - | 615 W/m² | - |
| 1778194225 | 26.11° C | 23% | 1019 hPa | 0 mm | - | 619 W/m² | - |
| 1778193921 | 26.11° C | 17% | 1018.8 hPa | 0 mm | - | 629 W/m² | - |
| 1778193617 | 26.67° C | 18% | 1019.3 hPa | 0 mm | - | 645 W/m² | - |
| 1778193313 | 26.11° C | 20% | 1019 hPa | 0 mm | - | 654 W/m² | - |
| 1778193011 | 26.11° C | 20% | 1018.9 hPa | 0 mm | - | 663 W/m² | - |
| 1778192708 | 25.56° C | 26% | 1019.2 hPa | 0 mm | - | 667 W/m² | - |
| 1778192404 | 26.11° C | 21% | 1019.2 hPa | 0 mm | - | 668 W/m² | - |
| 1778192101 | 26.11° C | 25% | 1019 hPa | 0 mm | - | 663 W/m² | - |
| 1778191797 | 25.56° C | 29% | 1019.2 hPa | 0 mm | - | 651 W/m² | - |
| 1778191495 | 25.56° C | 23% | 1019.6 hPa | 0 mm | - | 655 W/m² | - |
| 1778191191 | 25.56° C | 20% | 1019.3 hPa | 0 mm | - | 668 W/m² | - |
| 1778190887 | 25.56° C | 22% | 1019.4 hPa | 0 mm | - | 683 W/m² | - |
| 1778190585 | 25.56° C | 20% | 1019.2 hPa | 0 mm | - | 696 W/m² | - |
| 1778190283 | 25.56° C | 19% | 1019.6 hPa | 0 mm | - | 709 W/m² | - |
| 1778189978 | 26.11° C | 24% | 1019.6 hPa | 0 mm | - | 711 W/m² | - |
| 1778189675 | 25.56° C | 22% | 1019.6 hPa | 0 mm | - | 714 W/m² | - |
| 1778189371 | 25.56° C | 22% | 1019.9 hPa | 0 mm | - | 717 W/m² | - |
| 1778189061 | 25.56° C | 24% | 1019.7 hPa | 0 mm | - | 704 W/m² | - |
| 1778188759 | 25.56° C | 22% | 1019.7 hPa | 0 mm | - | 702 W/m² | - |
| 1778188455 | 25.56° C | 23% | 1019.8 hPa | 0 mm | - | 725 W/m² | - |
| 1778188152 | 25° C | 25% | 1019.4 hPa | 0 mm | - | 727 W/m² | - |
* Rain latest hour (hover to see other rain measurements)
** Current wind speed in m/s (hover to see current wind gust speed)